Regional Weather Roundup
Issued by NWS

Home | Current Version | Previous Version | Graphics & Text | Print | Product List | Glossary On
Versions: 1 2 3 4 5 6 7 8 9 10 11 12 13 14 15 16 17 18 19 20 21 22 23 24 25 26 27
000
ASUS45 KBOI 250310
RWRID

IDAHO REGIONAL WEATHER ROUNDUP
NATIONAL WEATHER SERVICE BOISE ID
900 PM MDT MON JUL 24 2017

NOTE: "FAIR" INDICATES FEW OR NO CLOUDS BELOW 12000 FEET
WITH NO SIGNIFICANT WEATHER AND/OR OBSTRUCTIONS TO VISIBILITY

IDZ012-014-250400-
SOUTHWEST IDAHO


CITY           SKY/WX    TMP DP  RH WIND       PRES   REMARKS
BOISE          CLOUDY    87  47  24 NW15G25   29.84R
CALDWELL       CLOUDY    82  50  32 NW6       29.82F
MOUNTAIN HOME  MOCLDY    90  50  25 W5        29.85R
$$

IDZ016-017-250400-
SOUTHCENTRAL IDAHO


CITY           SKY/WX    TMP DP  RH WIND       PRES   REMARKS
BURLEY         CLOUDY    76  55  48 SW3       29.91R
JEROME         CLOUDY    79  53  40 E3        29.93R
TWIN FALLS     CLOUDY    80  50  34 S6        29.93R
$$

IDZ019>023-250400-
SOUTHEAST IDAHO


CITY           SKY/WX    TMP DP  RH WIND       PRES   REMARKS
IDAHO FALLS    CLOUDY    75  53  46 NE3       29.99S
POCATELLO      CLOUDY    82  44  26 CALM      29.96S
REXBURG        CLEAR     75  50  41 E6        30.00S
$$

IDZ006-010-011-018-031-032-250400-
CENTRAL IDAHO MOUNTAINS


CITY           SKY/WX    TMP DP  RH WIND       PRES   REMARKS
MCCALL         CLOUDY    77  43  29 NW3       30.02R
HAILEY         MOCLDY    73  50  43 CALM      30.04R
STANLEY          N/A     73  41  31 CALM      30.13R
SALMON         NOT AVBL
CHALLIS        PTCLDY    76  43  30 N7        30.00R
$$

IDZ002-004-006-007-026-250400-
NORTHERN IDAHO


CITY           SKY/WX    TMP DP  RH WIND       PRES   REMARKS
LEWISTON       CLOUDY    88  29  12 N8        29.86R
LOWELL           N/A     74  49  41 CALM      29.85R
COEUR D`ALENE  CLEAR     77  44  30 W7        29.92S
MULLAN PASS    CLEAR     65  28  24 NW6       30.11F
$$




USA.gov is the U.S. government's official web portal to all federal, state and local government web resources and services.